Time,TemperatureF,DewpointF,PressureIn,WindDirection,WindDirectionDegrees,WindSpeedMPH,WindSpeedGustMPH,Humidity,HourlyPrecipIn,Conditions,Clouds,dailyrainin,SoftwareType,DateUTC
2013-05-15 00:00:00,50.8,0.0,30.11,SSW,203,0.0,0.0,0,0.00,,CLR,0.00,VWS V14.01,2013-05-15 04:00:00,
2013-05-15 00:01:00,50.7,0.0,30.11,SSW,203,0.0,0.0,0,0.00,,CLR,0.00,VWS V14.01,2013-05-15 04:01:00,
2013-05-15 00:06:00,50.5,0.0,30.10,SSW,203,0.0,0.0,0,0.00,,CLR,0.00,VWS V14.01,2013-05-15 04:06:00,
2013-05-15 00:11:00,50.4,0.0,30.10,SSW,203,0.0,0.0,0,0.00,,CLR,0.00,VWS V14.01,2013-05-15 04:11:00,
2013-05-15 00:16:00,50.3,0.0,30.10,SSW,203,0.0,0.0,0,0.00,,CLR,0.00,VWS V14.01,2013-05-15 04:16:00,
2013-05-15 00:21:00,50.1,0.0,30.10,SSW,203,0.0,0.0,0,0.00,,CLR,0.00,VWS V14.01,2013-05-15 04:21:00,
2013-05-15 00:26:00,50.0,0.0,30.10,SSW,203,0.0,0.0,0,0.00,,CLR,0.00,VWS V14.01,2013-05-15 04:26:00,
2013-05-15 00:31:00,49.9,0.0,30.10,SSW,203,0.0,0.0,0,0.00,,CLR,0.00,VWS V14.01,2013-05-15 04:31:00,
2013-05-15 00:36:00,49.8,0.0,30.10,SSW,203,0.0,0.0,0,0.00,,CLR,0.00,VWS V14.01,2013-05-15 04:36:00,
2013-05-15 00:41:00,49.7,0.0,30.10,SSW,203,0.0,0.0,0,0.00,,CLR,0.00,VWS V14.01,2013-05-15 04:41:00,
2013-05-15 00:46:00,49.6,0.0,30.10,SSW,203,0.0,0.0,0,0.00,,CLR,0.00,VWS V14.01,2013-05-15 04:46:00,
2013-05-15 00:51:00,49.5,0.0,30.10,SSW,203,0.0,0.0,0,0.00,,CLR,0.00,VWS V14.01,2013-05-15 04:51:00,
2013-05-15 00:56:00,49.4,0.0,30.10,SSW,203,0.0,0.0,0,0.00,,CLR,0.00,VWS V14.01,2013-05-15 04:56:00,
2013-05-15 01:01:00,49.3,0.0,30.10,SSW,203,0.0,0.0,0,0.00,,CLR,0.00,VWS V14.01,2013-05-15 05:01:00,
2013-05-15 01:06:00,49.1,0.0,30.10,SSW,203,0.0,0.0,0,0.00,,CLR,0.00,VWS V14.01,2013-05-15 05:06:00,
2013-05-15 01:11:00,49.1,0.0,30.10,SSW,203,0.0,0.0,0,0.00,,CLR,0.00,VWS V14.01,2013-05-15 05:11:00,
2013-05-15 01:16:00,48.9,0.0,30.09,SSW,203,0.0,0.0,0,0.00,,CLR,0.00,VWS V14.01,2013-05-15 05:16:00,
2013-05-15 01:21:00,48.8,0.0,30.09,SSW,203,0.0,0.0,0,0.00,,CLR,0.00,VWS V14.01,2013-05-15 05:21:00,
2013-05-15 01:26:00,48.7,0.0,30.09,SSW,203,0.0,0.0,0,0.00,,CLR,0.00,VWS V14.01,2013-05-15 05:26:00,
2013-05-15 01:31:00,48.6,0.0,30.09,SSW,203,0.0,0.0,0,0.00,,CLR,0.00,VWS V14.01,2013-05-15 05:31:00,
2013-05-15 01:36:00,48.5,0.0,30.09,SSW,203,0.0,0.0,0,0.00,,CLR,0.00,VWS V14.01,2013-05-15 05:36:00,
2013-05-15 01:41:00,48.5,0.0,30.09,SSW,203,0.0,0.0,0,0.00,,CLR,0.00,VWS V14.01,2013-05-15 05:41:00,
2013-05-15 01:46:00,48.4,0.0,30.08,SSW,203,0.0,0.0,0,0.00,,CLR,0.00,VWS V14.01,2013-05-15 05:46:00,
2013-05-15 01:51:00,48.3,0.0,30.08,SSW,203,0.0,0.0,0,0.00,,CLR,0.00,VWS V14.01,2013-05-15 05:51:00,
2013-05-15 01:56:00,48.2,0.0,30.08,SSW,203,0.0,0.0,0,0.00,,CLR,0.00,VWS V14.01,2013-05-15 05:56:00,
2013-05-15 02:01:00,48.2,0.0,30.08,SSW,203,0.0,0.0,0,0.00,,CLR,0.00,VWS V14.01,2013-05-15 06:01:00,
2013-05-15 02:06:00,48.2,0.0,30.08,SSW,203,0.0,0.0,0,0.00,,CLR,0.00,VWS V14.01,2013-05-15 06:06:00,
2013-05-15 02:11:00,48.1,0.0,30.08,SSW,203,0.0,0.0,0,0.00,,CLR,0.00,VWS V14.01,2013-05-15 06:11:00,
2013-05-15 02:16:00,48.2,0.0,30.08,SSE,160,1.0,1.0,0,0.00,,CLR,0.00,VWS V14.01,2013-05-15 06:16:00,
2013-05-15 02:21:00,48.2,0.0,30.07,SSE,160,0.0,1.0,0,0.00,,CLR,0.00,VWS V14.01,2013-05-15 06:21:00,
2013-05-15 02:26:00,48.2,0.0,30.07,SSE,160,0.0,1.0,0,0.00,,CLR,0.00,VWS V14.01,2013-05-15 06:26:00,
2013-05-15 02:31:00,48.0,0.0,30.07,SSE,160,0.0,0.0,0,0.00,,CLR,0.00,VWS V14.01,2013-05-15 06:31:00,
2013-05-15 02:36:00,48.0,0.0,30.06,SSE,160,0.0,0.0,0,0.00,,CLR,0.00,VWS V14.01,2013-05-15 06:36:00,
2013-05-15 02:41:00,47.8,0.0,30.07,SSE,160,0.0,0.0,0,0.00,,CLR,0.00,VWS V14.01,2013-05-15 06:41:00,
2013-05-15 02:46:00,47.8,0.0,30.07,SSE,160,0.0,0.0,0,0.00,,CLR,0.00,VWS V14.01,2013-05-15 06:46:00,
2013-05-15 02:51:00,47.9,0.0,30.07,ESE,110,1.0,2.0,0,0.00,,CLR,0.00,VWS V14.01,2013-05-15 06:51:00,
2013-05-15 02:56:00,48.0,0.0,30.07,SSE,153,0.0,2.0,0,0.00,,CLR,0.00,VWS V14.01,2013-05-15 06:56:00,
2013-05-15 03:01:00,47.9,0.0,30.07,SSE,153,0.0,0.0,0,0.00,,CLR,0.00,VWS V14.01,2013-05-15 07:01:00,
2013-05-15 03:06:00,47.9,0.0,30.07,SSE,154,0.0,0.0,0,0.00,,CLR,0.00,VWS V14.01,2013-05-15 07:06:00,
2013-05-15 03:11:00,47.9,0.0,30.06,SSE,153,0.0,1.0,0,0.00,,CLR,0.00,VWS V14.01,2013-05-15 07:11:00,
2013-05-15 03:16:00,47.8,0.0,30.07,SSE,153,0.0,1.0,0,0.00,,CLR,0.00,VWS V14.01,2013-05-15 07:16:00,
2013-05-15 03:21:00,47.8,0.0,30.07,SSW,207,0.0,1.0,0,0.00,,CLR,0.00,VWS V14.01,2013-05-15 07:21:00,
2013-05-15 03:26:00,47.7,0.0,30.06,SSW,207,0.0,1.0,0,0.00,,CLR,0.00,VWS V14.01,2013-05-15 07:26:00,
2013-05-15 03:31:00,47.6,0.0,30.06,SSW,207,0.0,0.0,0,0.00,,CLR,0.00,VWS V14.01,2013-05-15 07:31:00,
2013-05-15 03:36:00,47.4,0.0,30.06,SSW,207,0.0,0.0,0,0.00,,CLR,0.00,VWS V14.01,2013-05-15 07:36:00,
2013-05-15 03:41:00,47.3,0.0,30.06,SSW,207,0.0,1.0,0,0.00,,CLR,0.00,VWS V14.01,2013-05-15 07:41:00,
2013-05-15 03:46:00,47.3,0.0,30.06,SSW,207,0.0,1.0,0,0.00,,CLR,0.00,VWS V14.01,2013-05-15 07:46:00,
2013-05-15 03:51:00,47.3,0.0,30.06,SSW,207,0.0,1.0,0,0.00,,CLR,0.00,VWS V14.01,2013-05-15 07:51:00,
2013-05-15 03:56:00,47.2,0.0,30.06,SSW,205,0.0,1.0,0,0.00,,CLR,0.00,VWS V14.01,2013-05-15 07:56:00,
2013-05-15 04:01:00,47.1,0.0,30.06,SSW,205,0.0,0.0,0,0.00,,CLR,0.00,VWS V14.01,2013-05-15 08:01:00,
2013-05-15 04:06:00,47.1,0.0,30.06,SSW,207,0.0,0.0,0,0.00,,CLR,0.00,VWS V14.01,2013-05-15 08:06:00,
2013-05-15 04:12:00,47.2,0.0,30.07,SSW,207,0.0,1.0,0,0.00,,CLR,0.00,VWS V14.01,2013-05-15 08:12:00,
2013-05-15 04:17:00,47.2,0.0,30.07,SW,221,0.0,1.0,0,0.00,,CLR,0.00,VWS V14.01,2013-05-15 08:17:00,
2013-05-15 04:22:00,47.1,0.0,30.07,SW,219,0.0,1.0,0,0.00,,CLR,0.00,VWS V14.01,2013-05-15 08:22:00,
2013-05-15 04:27:00,47.1,0.0,30.07,SW,219,0.0,1.0,0,0.00,,CLR,0.00,VWS V14.01,2013-05-15 08:27:00,
2013-05-15 04:32:00,47.0,0.0,30.07,SW,219,0.0,0.0,0,0.00,,CLR,0.00,VWS V14.01,2013-05-15 08:32:00,
2013-05-15 04:37:00,46.9,0.0,30.07,SW,219,0.0,0.0,0,0.00,,CLR,0.00,VWS V14.01,2013-05-15 08:37:00,
2013-05-15 04:42:00,46.9,0.0,30.07,SW,219,0.0,0.0,0,0.00,,CLR,0.00,VWS V14.01,2013-05-15 08:42:00,
2013-05-15 04:47:00,46.8,0.0,30.07,SW,220,0.0,0.0,0,0.00,,CLR,0.00,VWS V14.01,2013-05-15 08:47:00,
2013-05-15 04:52:00,46.8,0.0,30.07,SW,219,0.0,1.0,0,0.00,,CLR,0.00,VWS V14.01,2013-05-15 08:52:00,
2013-05-15 04:57:00,46.8,0.0,30.07,SW,219,0.0,1.0,0,0.00,,CLR,0.00,VWS V14.01,2013-05-15 08:57:00,
2013-05-15 05:02:00,46.8,0.0,30.08,SW,219,0.0,0.0,0,0.00,,CLR,0.00,VWS V14.01,2013-05-15 09:02:00,
2013-05-15 05:07:00,46.9,0.0,30.08,SW,219,0.0,0.0,0,0.00,,CLR,0.00,VWS V14.01,2013-05-15 09:07:00,
2013-05-15 05:12:00,46.9,0.0,30.07,SW,220,0.0,0.0,0,0.00,,CLR,0.00,VWS V14.01,2013-05-15 09:12:00,
2013-05-15 05:17:00,46.8,0.0,30.07,SW,219,0.0,0.0,0,0.00,,CLR,0.00,VWS V14.01,2013-05-15 09:17:00,
2013-05-15 05:22:00,46.8,0.0,30.08,SW,219,0.0,1.0,0,0.00,,CLR,0.00,VWS V14.01,2013-05-15 09:22:00,
2013-05-15 05:27:00,46.6,0.0,30.08,SW,220,0.0,1.0,0,0.00,,CLR,0.00,VWS V14.01,2013-05-15 09:27:00,
2013-05-15 05:32:00,46.7,0.0,30.08,SW,218,1.0,1.0,0,0.00,,CLR,0.00,VWS V14.01,2013-05-15 09:32:00,
2013-05-15 05:37:00,46.7,0.0,30.08,ENE,63,0.0,1.0,0,0.00,,CLR,0.00,VWS V14.01,2013-05-15 09:37:00,
2013-05-15 05:42:00,46.7,0.0,30.08,ENE,63,0.0,1.0,0,0.00,,CLR,0.00,VWS V14.01,2013-05-15 09:42:00,
2013-05-15 05:47:00,46.7,0.0,30.08,ENE,63,0.0,1.0,0,0.00,,CLR,0.00,VWS V14.01,2013-05-15 09:47:00,
2013-05-15 05:52:00,46.7,0.0,30.08,ENE,64,0.0,1.0,0,0.00,,CLR,0.00,VWS V14.01,2013-05-15 09:52:00,
2013-05-15 05:57:00,46.7,0.0,30.08,ENE,63,0.0,2.0,0,0.00,,CLR,0.00,VWS V14.01,2013-05-15 09:57:00,
2013-05-15 06:02:00,46.7,0.0,30.08,ENE,65,0.0,0.0,0,0.00,,CLR,0.00,VWS V14.01,2013-05-15 10:02:00,
2013-05-15 06:07:00,46.6,0.0,30.08,ENE,65,0.0,0.0,0,0.00,,CLR,0.00,VWS V14.01,2013-05-15 10:07:00,
2013-05-15 06:12:00,46.6,0.0,30.08,ENE,65,0.0,0.0,0,0.00,,CLR,0.00,VWS V14.01,2013-05-15 10:12:00,
2013-05-15 06:17:00,46.6,0.0,30.09,ENE,65,0.0,1.0,0,0.00,,CLR,0.00,VWS V14.01,2013-05-15 10:17:00,
2013-05-15 06:22:00,46.6,0.0,30.09,ENE,65,0.0,1.0,0,0.00,,CLR,0.00,VWS V14.01,2013-05-15 10:22:00,
2013-05-15 06:27:00,46.5,0.0,30.09,ENE,65,0.0,1.0,0,0.00,,CLR,0.00,VWS V14.01,2013-05-15 10:27:00,
2013-05-15 06:32:00,46.5,0.0,30.09,ENE,65,0.0,0.0,0,0.00,,CLR,0.00,VWS V14.01,2013-05-15 10:32:00,
2013-05-15 06:37:00,46.6,0.0,30.09,ENE,65,0.0,0.0,0,0.00,,CLR,0.00,VWS V14.01,2013-05-15 10:37:00,
2013-05-15 06:42:00,46.7,0.0,30.09,ENE,65,0.0,0.0,0,0.00,,CLR,0.00,VWS V14.01,2013-05-15 10:42:00,
2013-05-15 06:47:00,46.7,0.0,30.09,ENE,65,0.0,0.0,0,0.00,,CLR,0.00,VWS V14.01,2013-05-15 10:47:00,
2013-05-15 06:52:00,47.1,0.0,30.09,ESE,115,0.0,1.0,0,0.00,,CLR,0.00,VWS V14.01,2013-05-15 10:52:00,
2013-05-15 06:57:00,47.2,0.0,30.09,ESE,115,0.0,1.0,0,0.00,,CLR,0.00,VWS V14.01,2013-05-15 10:57:00,
2013-05-15 07:02:00,47.2,0.0,30.09,ESE,115,0.0,0.0,0,0.00,,CLR,0.00,VWS V14.01,2013-05-15 11:02:00,
2013-05-15 07:07:00,47.4,0.0,30.09,ESE,115,0.0,0.0,0,0.00,,CLR,0.00,VWS V14.01,2013-05-15 11:07:00,
2013-05-15 07:12:00,47.6,0.0,30.10,ESE,115,0.0,0.0,0,0.00,,CLR,0.00,VWS V14.01,2013-05-15 11:12:00,
2013-05-15 07:17:00,47.9,0.0,30.10,SE,134,0.0,1.0,0,0.00,,CLR,0.00,VWS V14.01,2013-05-15 11:17:00,
2013-05-15 07:22:00,48.4,0.0,30.09,SW,219,0.0,1.0,0,0.00,,CLR,0.00,VWS V14.01,2013-05-15 11:22:00,
2013-05-15 07:27:00,48.7,0.0,30.09,SW,219,0.0,1.0,0,0.00,,CLR,0.00,VWS V14.01,2013-05-15 11:27:00,
2013-05-15 07:32:00,49.3,0.0,30.09,SW,219,0.0,0.0,0,0.00,,CLR,0.00,VWS V14.01,2013-05-15 11:32:00,
2013-05-15 07:37:00,49.9,0.0,30.09,SW,219,0.0,1.0,0,0.00,,CLR,0.00,VWS V14.01,2013-05-15 11:37:00,
2013-05-15 07:42:00,50.4,0.0,30.09,SSE,148,0.0,1.0,0,0.00,,CLR,0.00,VWS V14.01,2013-05-15 11:42:00,
2013-05-15 07:47:00,51.1,0.0,30.09,SSE,148,0.0,1.0,0,0.00,,CLR,0.00,VWS V14.01,2013-05-15 11:47:00,
2013-05-15 07:52:00,51.7,0.0,30.09,SSE,148,0.0,1.0,0,0.00,,CLR,0.00,VWS V14.01,2013-05-15 11:52:00,
2013-05-15 07:57:00,52.1,0.0,30.09,SSE,148,0.0,1.0,0,0.00,,CLR,0.00,VWS V14.01,2013-05-15 11:57:00,
2013-05-15 08:02:00,52.8,0.0,30.09,SSE,148,0.0,0.0,0,0.00,,CLR,0.00,VWS V14.01,2013-05-15 12:02:00,
2013-05-15 08:07:00,53.5,0.0,30.09,SSE,148,0.0,1.0,0,0.00,,CLR,0.00,VWS V14.01,2013-05-15 12:07:00,
2013-05-15 08:12:00,54.5,0.0,30.09,SSE,152,0.0,1.0,0,0.00,,CLR,0.00,VWS V14.01,2013-05-15 12:12:00,
2013-05-15 08:17:00,55.9,0.0,30.09,South,169,0.0,1.0,0,0.00,,CLR,0.00,VWS V14.01,2013-05-15 12:17:00,
2013-05-15 08:22:00,57.3,0.0,30.09,SSW,198,1.0,1.0,0,0.00,,CLR,0.00,VWS V14.01,2013-05-15 12:22:00,
2013-05-15 08:28:00,58.3,0.0,30.10,SSW,198,0.0,1.0,0,0.00,,CLR,0.00,VWS V14.01,2013-05-15 12:28:00,
2013-05-15 08:33:00,59.3,0.0,30.09,SSW,203,0.0,1.0,0,0.00,,CLR,0.00,VWS V14.01,2013-05-15 12:33:00,
2013-05-15 08:38:00,60.4,0.0,30.10,SSW,203,0.0,1.0,0,0.00,,CLR,0.00,VWS V14.01,2013-05-15 12:38:00,
2013-05-15 08:43:00,61.5,0.0,30.10,SSW,197,1.0,1.0,0,0.00,,CLR,0.00,VWS V14.01,2013-05-15 12:43:00,
2013-05-15 08:48:00,61.5,0.0,30.10,SE,129,0.0,1.0,0,0.00,,CLR,0.00,VWS V14.01,2013-05-15 12:48:00,
2013-05-15 08:53:00,62.2,10.8,30.10,South,190,0.0,1.0,13,0.00,,CLR,0.00,VWS V14.01,2013-05-15 12:53:00,
2013-05-15 08:58:00,63.6,21.8,30.10,East,93,0.0,2.0,20,0.00,,CLR,0.00,VWS V14.01,2013-05-15 12:58:00,
2013-05-15 09:03:00,63.9,34.3,30.10,East,93,0.0,1.0,33,0.00,,CLR,0.00,VWS V14.01,2013-05-15 13:03:00,
2013-05-15 09:08:00,64.3,34.6,30.10,East,95,0.0,1.0,33,0.00,,CLR,0.00,VWS V14.01,2013-05-15 13:08:00,
2013-05-15 09:13:00,65.5,38.6,30.10,ESE,102,0.0,1.0,37,0.00,,CLR,0.00,VWS V14.01,2013-05-15 13:13:00,
2013-05-15 09:18:00,66.5,43.3,30.10,South,181,0.0,3.0,43,0.00,,CLR,0.00,VWS V14.01,2013-05-15 13:18:00,
2013-05-15 09:24:00,67.2,46.9,30.10,SSE,163,0.0,3.0,48,0.00,,CLR,0.00,VWS V14.01,2013-05-15 13:24:00,
2013-05-15 09:29:00,68.0,47.6,30.10,South,184,0.0,3.0,48,0.00,,CLR,0.00,VWS V14.01,2013-05-15 13:29:00,
2013-05-15 09:34:00,68.9,51.1,30.10,South,184,0.0,2.0,53,0.00,,CLR,0.00,VWS V14.01,2013-05-15 13:34:00,
2013-05-15 09:39:00,70.0,52.6,30.10,East,91,0.0,2.0,54,0.00,,CLR,0.00,VWS V14.01,2013-05-15 13:39:00,
2013-05-15 09:44:00,71.0,54.0,30.10,SSE,152,0.0,2.0,55,0.00,,CLR,0.00,VWS V14.01,2013-05-15 13:44:00,
2013-05-15 09:50:00,71.9,55.9,30.09,SE,129,0.0,2.0,57,0.00,,CLR,0.00,VWS V14.01,2013-05-15 13:50:00,
2013-05-15 09:55:00,72.3,56.2,30.09,SE,131,0.0,2.0,57,0.00,,CLR,0.00,VWS V14.01,2013-05-15 13:55:00,
2013-05-15 10:00:00,73.4,56.8,30.09,SE,135,1.0,2.0,56,0.00,,CLR,0.00,VWS V14.01,2013-05-15 14:00:00,
2013-05-15 10:05:00,73.8,57.6,30.09,SE,145,0.0,2.0,57,0.00,,CLR,0.00,VWS V14.01,2013-05-15 14:05:00,
2013-05-15 10:10:00,74.8,58.6,30.09,SSW,210,0.0,2.0,57,0.00,,CLR,0.00,VWS V14.01,2013-05-15 14:10:00,
2013-05-15 10:15:00,76.0,59.7,30.08,South,170,0.0,2.0,57,0.00,,CLR,0.00,VWS V14.01,2013-05-15 14:15:00,
2013-05-15 10:20:00,76.6,60.2,30.09,South,169,0.0,2.0,57,0.00,,CLR,0.00,VWS V14.01,2013-05-15 14:20:00,
2013-05-15 10:25:00,77.4,60.5,30.08,South,169,0.0,2.0,56,0.00,,CLR,0.00,VWS V14.01,2013-05-15 14:25:00,
2013-05-15 10:30:00,78.6,61.6,30.08,East,96,1.0,1.0,56,0.00,,CLR,0.00,VWS V14.01,2013-05-15 14:30:00,
2013-05-15 10:35:00,78.8,61.8,30.08,SE,134,0.0,2.0,56,0.00,,CLR,0.00,VWS V14.01,2013-05-15 14:35:00,
2013-05-15 10:40:00,79.3,62.3,30.08,South,174,2.0,3.0,56,0.00,,CLR,0.00,VWS V14.01,2013-05-15 14:40:00,
2013-05-15 10:46:00,80.1,61.4,30.08,SSW,204,1.0,4.0,53,0.00,,CLR,0.00,VWS V14.01,2013-05-15 14:46:00,
2013-05-15 10:51:00,80.6,61.9,30.08,SSE,155,3.0,4.0,53,0.00,,CLR,0.00,VWS V14.01,2013-05-15 14:51:00,
2013-05-15 10:56:00,81.0,61.7,30.08,SSE,148,1.0,4.0,52,0.00,,CLR,0.00,VWS V14.01,2013-05-15 14:56:00,
2013-05-15 11:02:00,81.3,61.5,30.08,SSW,196,1.0,2.0,51,0.00,,CLR,0.00,VWS V14.01,2013-05-15 15:02:00,
2013-05-15 11:07:00,81.6,61.7,30.07,SSE,153,0.0,3.0,51,0.00,,CLR,0.00,VWS V14.01,2013-05-15 15:07:00,
2013-05-15 11:12:00,82.3,61.8,30.07,SSW,200,2.0,3.0,50,0.00,,CLR,0.00,VWS V14.01,2013-05-15 15:12:00,
2013-05-15 11:17:00,82.8,62.3,30.07,SSW,207,2.0,4.0,50,0.00,,CLR,0.00,VWS V14.01,2013-05-15 15:17:00,
2013-05-15 11:23:00,83.0,60.7,30.07,SE,136,1.0,4.0,47,0.00,,CLR,0.00,VWS V14.01,2013-05-15 15:23:00,
2013-05-15 11:28:00,83.3,61.6,30.07,South,172,3.0,6.0,48,0.00,,CLR,0.00,VWS V14.01,2013-05-15 15:28:00,
2013-05-15 11:33:00,84.2,63.6,30.07,SSW,195,0.0,0.0,50,0.00,,CLR,0.00,VWS V14.01,2013-05-15 15:33:00,
2013-05-15 11:38:00,85.0,62.5,30.07,East,86,0.0,3.0,47,0.00,,CLR,0.00,VWS V14.01,2013-05-15 15:38:00,
2013-05-15 11:43:00,85.6,62.5,30.07,NE,45,1.0,3.0,46,0.00,,CLR,0.00,VWS V14.01,2013-05-15 15:43:00,
2013-05-15 11:48:00,85.8,62.0,30.07,ENE,75,1.0,3.0,45,0.00,,CLR,0.00,VWS V14.01,2013-05-15 15:48:00,
2013-05-15 11:53:00,86.2,63.0,30.06,NNW,328,0.0,3.0,46,0.00,,CLR,0.00,VWS V14.01,2013-05-15 15:53:00,
2013-05-15 11:58:00,87.1,62.6,30.06,East,91,1.0,3.0,44,0.00,,CLR,0.00,VWS V14.01,2013-05-15 15:58:00,
2013-05-15 12:03:00,87.1,60.6,30.06,SE,129,2.0,3.0,41,0.00,,,0.00,VWS V14.01,2013-05-15 16:03:00,
2013-05-15 12:09:00,87.1,60.6,30.06,South,170,0.0,4.0,41,0.00,,,0.00,VWS V14.01,2013-05-15 16:09:00,
2013-05-15 12:14:00,88.1,61.5,30.06,SE,135,0.0,4.0,41,0.00,,,0.00,VWS V14.01,2013-05-15 16:14:00,
2013-05-15 12:19:00,88.7,62.0,30.05,ENE,67,1.0,4.0,41,0.00,,,0.00,VWS V14.01,2013-05-15 16:19:00,
2013-05-15 12:24:00,89.4,64.0,30.05,NE,34,1.0,4.0,43,0.00,,,0.00,VWS V14.01,2013-05-15 16:24:00,
2013-05-15 12:29:00,89.3,62.5,30.05,SSW,200,1.0,4.0,41,0.00,,,0.00,VWS V14.01,2013-05-15 16:29:00,
2013-05-15 12:34:00,88.7,62.0,30.05,WSW,238,2.0,3.0,41,0.00,,,0.00,VWS V14.01,2013-05-15 16:34:00,
2013-05-15 12:39:00,88.4,59.6,30.04,ESE,108,1.0,4.0,38,0.00,,,0.00,VWS V14.01,2013-05-15 16:39:00,
2013-05-15 12:44:00,88.8,61.4,30.04,SSE,149,3.0,5.0,40,0.00,,,0.00,VWS V14.01,2013-05-15 16:44:00,
2013-05-15 12:49:00,88.8,61.4,30.04,West,276,0.0,5.0,40,0.00,,,0.00,VWS V14.01,2013-05-15 16:49:00,
2013-05-15 12:54:00,89.2,59.5,30.04,West,278,2.0,5.0,37,0.00,,,0.00,VWS V14.01,2013-05-15 16:54:00,
2013-05-15 13:00:00,89.5,59.0,30.04,SSE,148,1.0,5.0,36,0.00,,,0.00,VWS V14.01,2013-05-15 17:00:00,
2013-05-15 13:05:00,89.8,60.8,30.03,NNW,343,1.0,4.0,38,0.00,,CLR,0.00,VWS V14.01,2013-05-15 17:05:00,
2013-05-15 13:10:00,90.0,60.3,30.03,NE,42,0.0,4.0,37,0.00,,CLR,0.00,VWS V14.01,2013-05-15 17:10:00,
2013-05-15 13:15:00,90.2,60.4,30.03,East,98,0.0,4.0,37,0.00,,CLR,0.00,VWS V14.01,2013-05-15 17:15:00,
2013-05-15 13:20:00,90.4,60.6,30.03,NE,47,0.0,4.0,37,0.00,,CLR,0.00,VWS V14.01,2013-05-15 17:20:00,
2013-05-15 13:26:00,90.6,61.5,30.03,SW,229,4.0,6.0,38,0.00,,CLR,0.00,VWS V14.01,2013-05-15 17:26:00,
2013-05-15 13:31:00,90.4,59.0,30.02,SSW,197,2.0,4.0,35,0.00,,CLR,0.00,VWS V14.01,2013-05-15 17:31:00,
2013-05-15 13:36:00,90.2,58.9,30.02,SW,231,0.0,5.0,35,0.00,,CLR,0.00,VWS V14.01,2013-05-15 17:36:00,
2013-05-15 13:41:00,90.1,61.1,30.02,South,190,0.0,5.0,38,0.00,,CLR,0.00,VWS V14.01,2013-05-15 17:41:00,
2013-05-15 13:46:00,90.8,63.2,30.01,NNW,330,0.0,5.0,40,0.00,,CLR,0.00,VWS V14.01,2013-05-15 17:46:00,
2013-05-15 13:51:00,91.1,61.2,30.01,SE,135,3.0,5.0,37,0.00,,CLR,0.00,VWS V14.01,2013-05-15 17:51:00,
2013-05-15 13:56:00,90.6,61.5,30.01,SSE,163,2.0,5.0,38,0.00,,CLR,0.00,VWS V14.01,2013-05-15 17:56:00,
2013-05-15 14:01:00,90.8,61.7,30.01,SSW,192,2.0,3.0,38,0.00,,CLR,0.00,VWS V14.01,2013-05-15 18:01:00,
2013-05-15 14:06:00,90.8,59.4,30.01,ESE,115,0.0,4.0,35,0.00,,CLR,0.00,VWS V14.01,2013-05-15 18:06:00,
2013-05-15 14:11:00,91.1,60.5,30.00,East,91,0.0,4.0,36,0.00,,CLR,0.00,VWS V14.01,2013-05-15 18:11:00,
2013-05-15 14:16:00,91.4,60.7,30.00,ENE,60,1.0,4.0,36,0.00,,CLR,0.00,VWS V14.01,2013-05-15 18:16:00,
2013-05-15 14:22:00,91.3,61.4,30.00,SE,134,1.0,4.0,37,0.00,,CLR,0.00,VWS V14.01,2013-05-15 18:22:00,
2013-05-15 14:27:00,91.5,63.8,30.00,WSW,243,0.0,4.0,40,0.00,,CLR,0.00,VWS V14.01,2013-05-15 18:27:00,
2013-05-15 14:32:00,91.5,60.0,30.00,South,177,3.0,6.0,35,0.00,,CLR,0.00,VWS V14.01,2013-05-15 18:32:00,
2013-05-15 14:37:00,91.3,58.2,29.99,SSE,162,2.0,6.0,33,0.00,,CLR,0.00,VWS V14.01,2013-05-15 18:37:00,
2013-05-15 14:42:00,91.3,59.8,29.99,West,259,1.0,6.0,35,0.00,,CLR,0.00,VWS V14.01,2013-05-15 18:42:00,
2013-05-15 14:48:00,91.2,59.8,29.99,SSW,198,0.0,6.0,35,0.00,,CLR,0.00,VWS V14.01,2013-05-15 18:48:00,
2013-05-15 14:53:00,91.5,61.6,29.99,NNE,18,1.0,6.0,37,0.00,,CLR,0.00,VWS V14.01,2013-05-15 18:53:00,
2013-05-15 14:58:00,91.5,58.4,29.99,NW,309,0.0,6.0,33,0.00,,CLR,0.00,VWS V14.01,2013-05-15 18:58:00,
2013-05-15 15:03:00,91.7,60.2,29.99,WNW,292,0.0,7.0,35,0.00,,CLR,0.00,VWS V14.01,2013-05-15 19:03:00,
2013-05-15 15:08:00,91.6,58.5,29.99,East,92,2.0,7.0,33,0.00,,CLR,0.00,VWS V14.01,2013-05-15 19:08:00,
2013-05-15 15:14:00,91.4,58.3,29.99,South,186,1.0,7.0,33,0.00,,CLR,0.00,VWS V14.01,2013-05-15 19:14:00,
2013-05-15 15:19:00,91.3,59.8,29.98,SE,134,1.0,7.0,35,0.00,,CLR,0.00,VWS V14.01,2013-05-15 19:19:00,
2013-05-15 15:24:00,91.2,58.1,29.98,SW,217,1.0,7.0,33,0.00,,CLR,0.00,VWS V14.01,2013-05-15 19:24:00,
2013-05-15 15:29:00,91.1,58.0,29.98,NW,304,1.0,7.0,33,0.00,,CLR,0.00,VWS V14.01,2013-05-15 19:29:00,
2013-05-15 15:34:00,90.9,58.7,29.98,WNW,283,3.0,4.0,34,0.00,,CLR,0.00,VWS V14.01,2013-05-15 19:34:00,
2013-05-15 15:39:00,90.5,58.3,29.98,SSW,207,1.0,7.0,34,0.00,,CLR,0.00,VWS V14.01,2013-05-15 19:39:00,
2013-05-15 15:44:00,90.4,59.0,29.97,WSW,248,0.0,7.0,35,0.00,,CLR,0.00,VWS V14.01,2013-05-15 19:44:00,
2013-05-15 15:49:00,90.5,58.3,29.97,SW,219,1.0,7.0,34,0.00,,CLR,0.00,VWS V14.01,2013-05-15 19:49:00,
2013-05-15 15:55:00,90.5,61.5,29.97,South,176,1.0,7.0,38,0.00,,CLR,0.00,VWS V14.01,2013-05-15 19:55:00,
2013-05-15 16:00:00,90.6,58.4,29.97,ESE,103,1.0,7.0,34,0.00,,CLR,0.00,VWS V14.01,2013-05-15 20:00:00,
2013-05-15 16:05:00,90.2,58.1,29.96,SE,142,4.0,5.0,34,0.00,,CLR,0.00,VWS V14.01,2013-05-15 20:05:00,
2013-05-15 16:11:00,90.0,59.5,29.96,ESE,123,2.0,6.0,36,0.00,,CLR,0.00,VWS V14.01,2013-05-15 20:11:00,
2013-05-15 16:16:00,89.8,60.1,29.96,SSE,149,5.0,9.0,37,0.00,,CLR,0.00,VWS V14.01,2013-05-15 20:16:00,
2013-05-15 16:21:00,89.2,60.3,29.96,SW,229,3.0,9.0,38,0.00,,CLR,0.00,VWS V14.01,2013-05-15 20:21:00,
2013-05-15 16:26:00,88.8,59.2,29.96,SSW,195,2.0,9.0,37,0.00,,CLR,0.00,VWS V14.01,2013-05-15 20:26:00,
2013-05-15 16:31:00,88.7,61.3,29.95,SSE,157,4.0,4.0,40,0.00,,CLR,0.00,VWS V14.01,2013-05-15 20:31:00,
2013-05-15 16:36:00,88.8,60.7,29.95,SE,131,2.0,5.0,39,0.00,,CLR,0.00,VWS V14.01,2013-05-15 20:36:00,
2013-05-15 16:42:00,88.9,61.5,29.95,SW,219,3.0,6.0,40,0.00,,CLR,0.00,VWS V14.01,2013-05-15 20:42:00,
2013-05-15 16:47:00,89.0,60.1,29.95,SSE,152,7.0,8.0,38,0.00,,CLR,0.00,VWS V14.01,2013-05-15 20:47:00,
2013-05-15 16:52:00,89.0,61.6,29.95,SSE,158,3.0,8.0,40,0.00,,CLR,0.00,VWS V14.01,2013-05-15 20:52:00,
2013-05-15 16:57:00,88.9,62.2,29.94,SE,134,0.0,8.0,41,0.00,,CLR,0.00,VWS V14.01,2013-05-15 20:57:00,
2013-05-15 17:02:00,88.8,59.9,29.94,SW,214,3.0,6.0,38,0.00,,CLR,0.00,VWS V14.01,2013-05-15 21:02:00,
2013-05-15 17:07:00,88.9,60.8,29.94,WSW,253,1.0,6.0,39,0.00,,CLR,0.00,VWS V14.01,2013-05-15 21:07:00,
2013-05-15 17:12:00,88.8,59.2,29.94,West,260,1.0,6.0,37,0.00,,CLR,0.00,VWS V14.01,2013-05-15 21:12:00,
2013-05-15 17:17:00,88.8,59.9,29.94,SW,214,2.0,6.0,38,0.00,,CLR,0.00,VWS V14.01,2013-05-15 21:17:00,
2013-05-15 17:22:00,88.8,62.8,29.94,SSW,193,2.0,6.0,42,0.00,,CLR,0.00,VWS V14.01,2013-05-15 21:22:00,
2013-05-15 17:27:00,88.6,60.5,29.94,SSW,194,5.0,6.0,39,0.00,,CLR,0.00,VWS V14.01,2013-05-15 21:27:00,
2013-05-15 17:33:00,88.1,60.0,29.94,SSE,157,1.0,3.0,39,0.00,,CLR,0.00,VWS V14.01,2013-05-15 21:33:00,
2013-05-15 17:38:00,87.4,61.5,29.94,South,176,2.0,4.0,42,0.00,,CLR,0.00,VWS V14.01,2013-05-15 21:38:00,
2013-05-15 17:43:00,86.6,62.8,29.94,SW,231,4.0,6.0,45,0.00,,CLR,0.00,VWS V14.01,2013-05-15 21:43:00,
2013-05-15 17:48:00,86.0,63.4,29.94,SW,229,2.0,6.0,47,0.00,,CLR,0.00,VWS V14.01,2013-05-15 21:48:00,
2013-05-15 17:53:00,85.8,63.9,29.94,SSE,164,2.0,6.0,48,0.00,,CLR,0.00,VWS V14.01,2013-05-15 21:53:00,
2013-05-15 17:58:00,85.7,63.2,29.94,WSW,246,2.0,8.0,47,0.00,,CLR,0.00,VWS V14.01,2013-05-15 21:58:00,
2013-05-15 18:04:00,85.7,63.2,29.94,SSW,208,3.0,6.0,47,0.00,,SCT110,0.00,VWS V14.01,2013-05-15 22:04:00,
2013-05-15 18:09:00,85.7,63.2,29.94,South,187,5.0,6.0,47,0.00,,SCT110,0.00,VWS V14.01,2013-05-15 22:09:00,
2013-05-15 18:14:00,85.6,63.1,29.94,South,173,3.0,8.0,47,0.00,,SCT110,0.00,VWS V14.01,2013-05-15 22:14:00,
2013-05-15 18:19:00,85.5,63.0,29.94,South,169,6.0,8.0,47,0.00,,SCT110,0.00,VWS V14.01,2013-05-15 22:19:00,
2013-05-15 18:24:00,85.2,62.7,29.94,South,169,2.0,8.0,47,0.00,,SCT110,0.00,VWS V14.01,2013-05-15 22:24:00,
2013-05-15 18:29:00,85.0,63.1,29.94,WSW,240,1.0,8.0,48,0.00,,SCT110,0.00,VWS V14.01,2013-05-15 22:29:00,
2013-05-15 18:34:00,84.9,63.6,29.94,ESE,115,5.0,5.0,49,0.00,,SCT110,0.00,VWS V14.01,2013-05-15 22:34:00,
2013-05-15 18:39:00,84.7,63.5,29.94,SSW,203,1.0,6.0,49,0.00,,SCT110,0.00,VWS V14.01,2013-05-15 22:39:00,
2013-05-15 18:45:00,84.7,63.5,29.94,ESE,120,1.0,6.0,49,0.00,,SCT110,0.00,VWS V14.01,2013-05-15 22:45:00,
2013-05-15 18:50:00,84.6,63.3,29.94,South,180,2.0,6.0,49,0.00,,SCT110,0.00,VWS V14.01,2013-05-15 22:50:00,
2013-05-15 18:55:00,84.5,63.3,29.94,SSW,204,4.0,7.0,49,0.00,,SCT110,0.00,VWS V14.01,2013-05-15 22:55:00,
2013-05-15 19:00:00,84.2,63.0,29.94,SW,231,1.0,7.0,49,0.00,,SCT110,0.00,VWS V14.01,2013-05-15 23:00:00,
2013-05-15 19:05:00,84.1,62.9,29.94,SW,214,0.0,6.0,49,0.00,,CLR,0.00,VWS V14.01,2013-05-15 23:05:00,
2013-05-15 19:10:00,83.9,62.7,29.94,SSW,204,1.0,6.0,49,0.00,,CLR,0.00,VWS V14.01,2013-05-15 23:10:00,
2013-05-15 19:15:00,83.6,62.4,29.94,SSW,198,3.0,7.0,49,0.00,,CLR,0.00,VWS V14.01,2013-05-15 23:15:00,
2013-05-15 19:20:00,83.5,62.9,29.94,SSW,211,1.0,7.0,50,0.00,,CLR,0.00,VWS V14.01,2013-05-15 23:20:00,
2013-05-15 19:25:00,83.3,62.7,29.94,South,184,0.0,7.0,50,0.00,,CLR,0.00,VWS V14.01,2013-05-15 23:25:00,
2013-05-15 19:30:00,83.0,63.0,29.94,SSE,155,0.0,0.0,51,0.00,,CLR,0.00,VWS V14.01,2013-05-15 23:30:00,
2013-05-15 19:35:00,82.7,62.8,29.94,SSW,210,1.0,2.0,51,0.00,,CLR,0.00,VWS V14.01,2013-05-15 23:35:00,
2013-05-15 19:40:00,82.6,63.2,29.94,South,172,0.0,2.0,52,0.00,,CLR,0.00,VWS V14.01,2013-05-15 23:40:00,
2013-05-15 19:45:00,82.3,64.0,29.95,South,172,0.0,2.0,54,0.00,,CLR,0.00,VWS V14.01,2013-05-15 23:45:00,
2013-05-15 19:50:00,81.6,63.4,29.95,South,172,0.0,2.0,54,0.00,,CLR,0.00,VWS V14.01,2013-05-15 23:50:00,
2013-05-15 19:55:00,80.8,63.1,29.95,South,172,0.0,2.0,55,0.00,,CLR,0.00,VWS V14.01,2013-05-15 23:55:00,
2013-05-15 20:00:00,79.9,62.3,29.95,South,172,0.0,0.0,55,0.00,,CLR,0.00,VWS V14.01,2013-05-16 00:00:00,
2013-05-15 20:05:00,79.2,62.2,29.95,South,172,0.0,0.0,56,0.00,,CLR,0.00,VWS V14.01,2013-05-16 00:05:00,
2013-05-15 20:10:00,78.5,61.5,29.95,South,172,0.0,0.0,56,0.00,,CLR,0.00,VWS V14.01,2013-05-16 00:10:00,
2013-05-15 20:15:00,77.9,61.0,29.95,South,172,0.0,0.0,56,0.00,,CLR,0.00,VWS V14.01,2013-05-16 00:15:00,
2013-05-15 20:21:00,77.4,60.5,29.95,South,172,0.0,0.0,56,0.00,,CLR,0.00,VWS V14.01,2013-05-16 00:21:00,
2013-05-15 20:26:00,76.8,59.4,29.96,South,172,0.0,0.0,55,0.00,,CLR,0.00,VWS V14.01,2013-05-16 00:26:00,
2013-05-15 20:31:00,76.1,57.8,29.96,South,172,0.0,0.0,53,0.00,,CLR,0.00,VWS V14.01,2013-05-16 00:31:00,
2013-05-15 20:36:00,75.4,56.0,29.96,South,172,0.0,0.0,51,0.00,,CLR,0.00,VWS V14.01,2013-05-16 00:36:00,
2013-05-15 20:41:00,74.7,53.7,29.96,South,172,0.0,0.0,48,0.00,,CLR,0.00,VWS V14.01,2013-05-16 00:41:00,
2013-05-15 20:46:00,74.1,51.4,29.96,South,172,0.0,0.0,45,0.00,,CLR,0.00,VWS V14.01,2013-05-16 00:46:00,
2013-05-15 20:51:00,73.4,49.6,29.96,South,172,0.0,0.0,43,0.00,,CLR,0.00,VWS V14.01,2013-05-16 00:51:00,
2013-05-15 20:56:00,72.8,47.1,29.97,South,172,0.0,0.0,40,0.00,,CLR,0.00,VWS V14.01,2013-05-16 00:56:00,
2013-05-15 21:01:00,72.2,44.5,29.97,South,172,0.0,0.0,37,0.00,,CLR,0.00,VWS V14.01,2013-05-16 01:01:00,
2013-05-15 21:06:00,71.6,41.0,29.97,South,172,0.0,0.0,33,0.00,,CLR,0.00,VWS V14.01,2013-05-16 01:06:00,
2013-05-15 21:11:00,71.1,39.0,29.97,South,172,0.0,0.0,31,0.00,,CLR,0.00,VWS V14.01,2013-05-16 01:11:00,
2013-05-15 21:16:00,70.5,35.9,29.97,South,172,0.0,0.0,28,0.00,,CLR,0.00,VWS V14.01,2013-05-16 01:16:00,
2013-05-15 21:21:00,70.0,32.6,29.97,South,172,0.0,0.0,25,0.00,,CLR,0.00,VWS V14.01,2013-05-16 01:21:00,
2013-05-15 21:26:00,69.6,26.8,29.97,South,172,0.0,0.0,20,0.00,,CLR,0.00,VWS V14.01,2013-05-16 01:26:00,
2013-05-15 21:32:00,69.1,21.1,29.97,South,172,0.0,0.0,16,0.00,,CLR,0.00,VWS V14.01,2013-05-16 01:32:00,
2013-05-15 21:37:00,68.7,15.9,29.98,South,172,0.0,0.0,13,0.00,,CLR,0.00,VWS V14.01,2013-05-16 01:37:00,
2013-05-15 21:42:00,68.3,11.8,29.98,South,172,0.0,0.0,11,0.00,,CLR,0.00,VWS V14.01,2013-05-16 01:42:00,
2013-05-15 21:47:00,67.9,1.6,29.98,South,172,0.0,0.0,7,0.00,,CLR,0.00,VWS V14.01,2013-05-16 01:47:00,
2013-05-15 21:52:00,67.5,-10.4,29.98,South,172,0.0,0.0,4,0.00,,CLR,0.00,VWS V14.01,2013-05-16 01:52:00,
2013-05-15 21:57:00,67.2,0.0,29.99,South,172,0.0,0.0,0,0.00,,CLR,0.00,VWS V14.01,2013-05-16 01:57:00,
2013-05-15 22:02:00,66.8,0.0,29.98,South,172,0.0,0.0,0,0.00,,CLR,0.00,VWS V14.01,2013-05-16 02:02:00,
2013-05-15 22:07:00,66.5,0.0,29.98,South,172,0.0,0.0,0,0.00,,CLR,0.00,VWS V14.01,2013-05-16 02:07:00,
2013-05-15 22:13:00,66.2,0.0,29.99,South,172,0.0,0.0,0,0.00,,CLR,0.00,VWS V14.01,2013-05-16 02:13:00,
2013-05-15 22:18:00,65.9,0.0,29.99,South,172,0.0,0.0,0,0.00,,CLR,0.00,VWS V14.01,2013-05-16 02:18:00,
2013-05-15 22:23:00,65.6,0.0,29.99,South,172,0.0,0.0,0,0.00,,CLR,0.00,VWS V14.01,2013-05-16 02:23:00,
2013-05-15 22:28:00,65.4,0.0,29.99,South,172,0.0,0.0,0,0.00,,CLR,0.00,VWS V14.01,2013-05-16 02:28:00,
2013-05-15 22:33:00,65.1,0.0,29.99,South,172,0.0,0.0,0,0.00,,CLR,0.00,VWS V14.01,2013-05-16 02:33:00,
2013-05-15 22:38:00,64.9,0.0,29.99,South,172,0.0,0.0,0,0.00,,CLR,0.00,VWS V14.01,2013-05-16 02:38:00,
2013-05-15 22:43:00,64.8,0.0,29.99,South,172,0.0,0.0,0,0.00,,CLR,0.00,VWS V14.01,2013-05-16 02:43:00,
2013-05-15 22:48:00,64.5,0.0,29.99,South,171,0.0,0.0,0,0.00,,CLR,0.00,VWS V14.01,2013-05-16 02:48:00,
2013-05-15 22:53:00,64.3,0.0,29.99,SE,131,0.0,1.0,0,0.00,,CLR,0.00,VWS V14.01,2013-05-16 02:53:00,
2013-05-15 22:58:00,64.1,0.0,29.98,SE,131,0.0,1.0,0,0.00,,CLR,0.00,VWS V14.01,2013-05-16 02:58:00,
2013-05-15 23:03:00,63.8,0.0,29.98,SE,131,0.0,0.0,0,0.00,,CLR,0.00,VWS V14.01,2013-05-16 03:03:00,
2013-05-15 23:08:00,63.6,0.0,29.98,SE,131,0.0,0.0,0,0.00,,CLR,0.00,VWS V14.01,2013-05-16 03:08:00,
2013-05-15 23:13:00,63.4,0.0,29.98,SE,131,0.0,0.0,0,0.00,,CLR,0.00,VWS V14.01,2013-05-16 03:13:00,
2013-05-15 23:18:00,63.2,0.0,29.98,SE,131,0.0,0.0,0,0.00,,CLR,0.00,VWS V14.01,2013-05-16 03:18:00,
2013-05-15 23:23:00,63.0,0.0,29.98,SE,131,0.0,0.0,0,0.00,,CLR,0.00,VWS V14.01,2013-05-16 03:23:00,
2013-05-15 23:29:00,62.7,0.0,29.98,SE,131,0.0,0.0,0,0.00,,CLR,0.00,VWS V14.01,2013-05-16 03:29:00,
2013-05-15 23:34:00,62.6,0.0,29.98,SE,131,0.0,0.0,0,0.00,,CLR,0.00,VWS V14.01,2013-05-16 03:34:00,
2013-05-15 23:39:00,62.4,0.0,29.98,SE,131,0.0,0.0,0,0.00,,CLR,0.00,VWS V14.01,2013-05-16 03:39:00,
2013-05-15 23:44:00,62.2,0.0,29.98,SE,131,0.0,0.0,0,0.00,,CLR,0.00,VWS V14.01,2013-05-16 03:44:00,
2013-05-15 23:49:00,62.1,0.0,29.98,SE,131,0.0,0.0,0,0.00,,CLR,0.00,VWS V14.01,2013-05-16 03:49:00,
2013-05-15 23:54:00,61.9,0.0,29.98,SE,131,0.0,0.0,0,0.00,,CLR,0.00,VWS V14.01,2013-05-16 03:54:00,
2013-05-15 23:59:00,61.7,0.0,29.98,SE,131,0.0,0.0,0,0.00,,CLR,0.00,VWS V14.01,2013-05-16 03:59:00,